owner,sensor,date,latitude,longitude,vertical_datum,mass_concentration_of_oxygen_in_sea_water,qcFlag 
DISL,ioos:station:DISL:MHPA:1,2009-04-01T00:00:00Z,30.6671,-87.9365,5.074,7.21,1111122 
DISL,ioos:station:DISL:MHPA:1,2009-04-01T00:30:00Z,30.6671,-87.9365,5.034,6.97,1111122 
DISL,ioos:station:DISL:MHPA:1,2009-04-01T01:00:00Z,30.6671,-87.9365,4.902,6.9,1111122 
DISL,ioos:station:DISL:MHPA:1,2009-04-01T01:30:00Z,30.6671,-87.9365,4.819,6.89,1111122 
DISL,ioos:station:DISL:MHPA:1,2009-04-01T02:00:00Z,30.6671,-87.9365,4.642,6.78,1111122 
DISL,ioos:station:DISL:MHPA:1,2009-04-01T02:30:00Z,30.6671,-87.9365,4.502,6.69,1111122 
DISL,ioos:station:DISL:MHPA:1,2009-04-01T03:00:00Z,30.6671,-87.9365,4.342,6.87,1111122 
DISL,ioos:station:DISL:MHPA:1,2009-04-01T03:30:00Z,30.6671,-87.9365,4.235,6.95,1111122 
DISL,ioos:station:DISL:MHPA:1,2009-04-01T04:00:00Z,30.6671,-87.9365,4.126,6.98,1111122 
DISL,ioos:station:DISL:MHPA:1,2009-04-01T04:30:00Z,30.6671,-87.9365,3.995,7.01,1111122 
DISL,ioos:station:DISL:MHPA:1,2009-04-01T05:00:00Z,30.6671,-87.9365,3.919,7.03,1111122 
DISL,ioos:station:DISL:MHPA:1,2009-04-01T05:30:00Z,30.6671,-87.9365,3.855,7.03,1111122 
DISL,ioos:station:DISL:MHPA:1,2009-04-01T06:00:00Z,30.6671,-87.9365,3.772,6.99,1111122 
DISL,ioos:station:DISL:MHPA:1,2009-04-01T06:30:00Z,30.6671,-87.9365,3.67,6.96,1111122 
DISL,ioos:station:DISL:MHPA:1,2009-04-01T07:00:00Z,30.6671,-87.9365,3.624,6.94,1111122 
DISL,ioos:station:DISL:MHPA:1,2009-04-01T07:30:00Z,30.6671,-87.9365,3.556,6.8,1111122 
DISL,ioos:station:DISL:MHPA:1,2009-04-01T08:00:00Z,30.6671,-87.9365,3.478,6.81,1111122 
DISL,ioos:station:DISL:MHPA:1,2009-04-01T08:30:00Z,30.6671,-87.9365,3.406,6.69,1111122 
DISL,ioos:station:DISL:MHPA:1,2009-04-01T09:00:00Z,30.6671,-87.9365,3.366,6.52,1111122 
DISL,ioos:station:DISL:MHPA:1,2009-04-01T09:30:00Z,30.6671,-87.9365,3.319,6.28,1111122 
DISL,ioos:station:DISL:MHPA:1,2009-04-01T10:00:00Z,30.6671,-87.9365,3.269,7.02,1111122 
DISL,ioos:station:DISL:MHPA:1,2009-04-01T10:30:00Z,30.6671,-87.9365,3.192,7.04,1111122 
DISL,ioos:station:DISL:MHPA:1,2009-04-01T11:00:00Z,30.6671,-87.9365,3.122,6.94,1111122 
DISL,ioos:station:DISL:MHPA:1,2009-04-01T11:30:00Z,30.6671,-87.9365,3.061,6.5,1111122 
DISL,ioos:station:DISL:MHPA:1,2009-04-01T12:00:00Z,30.6671,-87.9365,2.994,6.48,1111122 
DISL,ioos:station:DISL:MHPA:1,2009-04-01T12:30:00Z,30.6671,-87.9365,2.957,6.48,1111122 
DISL,ioos:station:DISL:MHPA:1,2009-04-01T13:00:00Z,30.6671,-87.9365,2.922,6.59,1111122 
DISL,ioos:station:DISL:MHPA:1,2009-04-01T13:30:00Z,30.6671,-87.9365,2.882,6.61,1111122 
DISL,ioos:station:DISL:MHPA:1,2009-04-01T14:00:00Z,30.6671,-87.9365,2.842,6.65,1111122 
DISL,ioos:station:DISL:MHPA:1,2009-04-01T14:30:00Z,30.6671,-87.9365,2.886,6.67,1111122 
DISL,ioos:station:DISL:MHPA:1,2009-04-01T15:00:00Z,30.6671,-87.9365,3.02,6.76,1111122 
DISL,ioos:station:DISL:MHPA:1,2009-04-01T15:30:00Z,30.6671,-87.9365,3.164,6.7,1111122 
DISL,ioos:station:DISL:MHPA:1,2009-04-01T16:00:00Z,30.6671,-87.9365,3.198,6.79,1111122 
DISL,ioos:station:DISL:MHPA:1,2009-04-01T16:30:00Z,30.6671,-87.9365,3.288,6.8,1111122 
DISL,ioos:station:DISL:MHPA:1,2009-04-01T17:00:00Z,30.6671,-87.9365,3.506,6.68,1111122 
DISL,ioos:station:DISL:MHPA:1,2009-04-01T17:30:00Z,30.6671,-87.9365,3.548,6.79,1111122 
DISL,ioos:station:DISL:MHPA:1,2009-04-01T18:00:00Z,30.6671,-87.9365,3.791,6.86,1111122 
DISL,ioos:station:DISL:MHPA:1,2009-04-01T18:30:00Z,30.6671,-87.9365,4.079,6.46,1111122 
DISL,ioos:station:DISL:MHPA:1,2009-04-01T19:00:00Z,30.6671,-87.9365,4.357,6.3,1111122 
DISL,ioos:station:DISL:MHPA:1,2009-04-01T19:30:00Z,30.6671,-87.9365,4.692,6.25,1111122 
DISL,ioos:station:DISL:MHPA:1,2009-04-01T20:00:00Z,30.6671,-87.9365,4.847,6.37,1111122 
DISL,ioos:station:DISL:MHPA:1,2009-04-01T20:30:00Z,30.6671,-87.9365,5.045,6.56,1111122 
DISL,ioos:station:DISL:MHPA:1,2009-04-01T21:00:00Z,30.6671,-87.9365,5.153,6.04,1111122 
DISL,ioos:station:DISL:MHPA:1,2009-04-01T21:30:00Z,30.6671,-87.9365,5.193,6.03,1111122 
DISL,ioos:station:DISL:MHPA:1,2009-04-01T22:00:00Z,30.6671,-87.9365,5.247,6.29,1111122 
DISL,ioos:station:DISL:MHPA:1,2009-04-01T22:30:00Z,30.6671,-87.9365,5.227,6.35,1111122 
DISL,ioos:station:DISL:MHPA:1,2009-04-01T23:00:00Z,30.6671,-87.9365,5.222,6.2,1111122 
DISL,ioos:station:DISL:MHPA:1,2009-04-01T23:30:00Z,30.6671,-87.9365,5.188,6.15,1111122 
DISL,ioos:station:DISL:MHPA:1,2009-04-02T00:00:00Z,30.6671,-87.9365,5.136,5.82,1111122 
DISL,ioos:station:DISL:MHPA:1,2009-04-02T00:30:00Z,30.6671,-87.9365,5.058,5.87,1111122 
DISL,ioos:station:DISL:MHPA:1,2009-04-02T01:00:00Z,30.6671,-87.9365,4.992,5.88,1111122 
DISL,ioos:station:DISL:MHPA:1,2009-04-02T01:30:00Z,30.6671,-87.9365,4.879,6.06,1111122 
DISL,ioos:station:DISL:MHPA:1,2009-04-02T02:00:00Z,30.6671,-87.9365,4.727,6.06,1111122 
DISL,ioos:station:DISL:MHPA:1,2009-04-02T02:30:00Z,30.6671,-87.9365,4.632,5.86,1111122 
DISL,ioos:station:DISL:MHPA:1,2009-04-02T03:00:00Z,30.6671,-87.9365,4.5,5.68,1111122 
DISL,ioos:station:DISL:MHPA:1,2009-04-02T03:30:00Z,30.6671,-87.9365,4.365,5.61,1111122 
DISL,ioos:station:DISL:MHPA:1,2009-04-02T04:00:00Z,30.6671,-87.9365,4.246,5.61,1111122 
DISL,ioos:station:DISL:MHPA:1,2009-04-02T04:30:00Z,30.6671,-87.9365,4.167,5.75,1111122 
DISL,ioos:station:DISL:MHPA:1,2009-04-02T05:00:00Z,30.6671,-87.9365,4.082,6.03,1111122 
DISL,ioos:station:DISL:MHPA:1,2009-04-02T05:30:00Z,30.6671,-87.9365,4.031,5.86,1111122 
DISL,ioos:station:DISL:MHPA:1,2009-04-02T06:00:00Z,30.6671,-87.9365,4.051,5.79,1111122 
DISL,ioos:station:DISL:MHPA:1,2009-04-02T06:30:00Z,30.6671,-87.9365,4.034,5.76,1111122 
DISL,ioos:station:DISL:MHPA:1,2009-04-02T07:00:00Z,30.6671,-87.9365,3.94,5.84,1111122 
DISL,ioos:station:DISL:MHPA:1,2009-04-02T07:30:00Z,30.6671,-87.9365,3.854,5.8,1111122 
DISL,ioos:station:DISL:MHPA:1,2009-04-02T08:00:00Z,30.6671,-87.9365,3.758,5.88,1111122 
DISL,ioos:station:DISL:MHPA:1,2009-04-02T08:30:00Z,30.6671,-87.9365,3.641,5.79,1111122 
DISL,ioos:station:DISL:MHPA:1,2009-04-02T09:00:00Z,30.6671,-87.9365,3.562,5.7,1111122 
DISL,ioos:station:DISL:MHPA:1,2009-04-02T09:30:00Z,30.6671,-87.9365,3.553,6.01,1111122 
DISL,ioos:station:DISL:MHPA:1,2009-04-02T10:00:00Z,30.6671,-87.9365,3.558,5.84,1111122 
DISL,ioos:station:DISL:MHPA:1,2009-04-02T10:30:00Z,30.6671,-87.9365,3.589,5.79,1111122 
DISL,ioos:station:DISL:MHPA:1,2009-04-02T11:00:00Z,30.6671,-87.9365,3.704,6.3,1111122 
DISL,ioos:station:DISL:MHPA:1,2009-04-02T11:30:00Z,30.6671,-87.9365,3.864,6.19,1111122 
DISL,ioos:station:DISL:MHPA:1,2009-04-02T12:00:00Z,30.6671,-87.9365,3.743,5.96,1111122 
DISL,ioos:station:DISL:MHPA:1,2009-04-02T12:30:00Z,30.6671,-87.9365,3.665,6.16,1111122 
DISL,ioos:station:DISL:MHPA:1,2009-04-02T13:00:00Z,30.6671,-87.9365,3.662,5.98,1111122 
DISL,ioos:station:DISL:MHPA:1,2009-04-02T13:30:00Z,30.6671,-87.9365,3.931,6.34,1111122 
DISL,ioos:station:DISL:MHPA:1,2009-04-02T14:00:00Z,30.6671,-87.9365,4.189,6.68,1111122 
DISL,ioos:station:DISL:MHPA:1,2009-04-02T14:30:00Z,30.6671,-87.9365,4.246,6.45,1111122 
DISL,ioos:station:DISL:MHPA:1,2009-04-02T15:00:00Z,30.6671,-87.9365,4.546,6.23,1111122 
DISL,ioos:station:DISL:MHPA:1,2009-04-02T15:30:00Z,30.6671,-87.9365,4.491,6.25,1111122 
DISL,ioos:station:DISL:MHPA:1,2009-04-02T16:00:00Z,30.6671,-87.9365,4.676,6.39,1111122 
DISL,ioos:station:DISL:MHPA:1,2009-04-02T16:30:00Z,30.6671,-87.9365,4.914,6.52,1111122 
DISL,ioos:station:DISL:MHPA:1,2009-04-02T17:00:00Z,30.6671,-87.9365,5.167,6.6,1111122 
DISL,ioos:station:DISL:MHPA:1,2009-04-02T17:30:00Z,30.6671,-87.9365,5.054,6.61,1111122 
DISL,ioos:station:DISL:MHPA:1,2009-04-02T18:00:00Z,30.6671,-87.9365,4.777,6.53,1111122 
DISL,ioos:station:DISL:MHPA:1,2009-04-02T18:30:00Z,30.6671,-87.9365,4.831,6.66,1111122 
DISL,ioos:station:DISL:MHPA:1,2009-04-02T19:00:00Z,30.6671,-87.9365,5.395,6.87,1111122 
DISL,ioos:station:DISL:MHPA:1,2009-04-02T19:30:00Z,30.6671,-87.9365,5.506,6.95,1111122 
DISL,ioos:station:DISL:MHPA:1,2009-04-02T20:00:00Z,30.6671,-87.9365,5.979,7.09,1111122 
DISL,ioos:station:DISL:MHPA:1,2009-04-02T20:30:00Z,30.6671,-87.9365,6.287,7.02,1111122 
DISL,ioos:station:DISL:MHPA:1,2009-04-02T21:00:00Z,30.6671,-87.9365,6.239,7.0,1111122 
DISL,ioos:station:DISL:MHPA:1,2009-04-02T21:30:00Z,30.6671,-87.9365,6.266,7.17,1111122 
DISL,ioos:station:DISL:MHPA:1,2009-04-02T22:00:00Z,30.6671,-87.9365,6.194,7.07,1111122 
DISL,ioos:station:DISL:MHPA:1,2009-04-02T22:30:00Z,30.6671,-87.9365,6.163,7.02,1111122 
DISL,ioos:station:DISL:MHPA:1,2009-04-02T23:00:00Z,30.6671,-87.9365,6.134,6.99,1111122 
DISL,ioos:station:DISL:MHPA:1,2009-04-02T23:30:00Z,30.6671,-87.9365,6.026,7.06,1111122 
DISL,ioos:station:DISL:MHPA:1,2009-04-03T00:00:00Z,30.6671,-87.9365,6.095,7.01,1111122 
DISL,ioos:station:DISL:MHPA:1,2009-04-03T00:30:00Z,30.6671,-87.9365,6.163,7.03,1111122 
DISL,ioos:station:DISL:MHPA:1,2009-04-03T01:00:00Z,30.6671,-87.9365,6.127,7.13,1111122 
DISL,ioos:station:DISL:MHPA:1,2009-04-03T01:30:00Z,30.6671,-87.9365,5.985,7.18,1111122 
DISL,ioos:station:DISL:MHPA:1,2009-04-03T02:00:00Z,30.6671,-87.9365,5.713,7.22,1111122 
DISL,ioos:station:DISL:MHPA:1,2009-04-03T02:30:00Z,30.6671,-87.9365,5.499,7.17,1111122 
DISL,ioos:station:DISL:MHPA:1,2009-04-03T03:00:00Z,30.6671,-87.9365,5.27,7.13,1111122 
DISL,ioos:station:DISL:MHPA:1,2009-04-03T03:30:00Z,30.6671,-87.9365,5.129,7.05,1111122 
DISL,ioos:station:DISL:MHPA:1,2009-04-03T04:00:00Z,30.6671,-87.9365,4.97,7.02,1111122 
DISL,ioos:station:DISL:MHPA:1,2009-04-03T04:30:00Z,30.6671,-87.9365,4.891,7.06,1111122 
DISL,ioos:station:DISL:MHPA:1,2009-04-03T05:00:00Z,30.6671,-87.9365,4.878,6.95,1111122 
DISL,ioos:station:DISL:MHPA:1,2009-04-03T05:30:00Z,30.6671,-87.9365,4.808,6.94,1111122 
DISL,ioos:station:DISL:MHPA:1,2009-04-03T06:00:00Z,30.6671,-87.9365,4.703,6.82,1111122 
DISL,ioos:station:DISL:MHPA:1,2009-04-03T06:30:00Z,30.6671,-87.9365,4.563,6.85,1111122 
DISL,ioos:station:DISL:MHPA:1,2009-04-03T07:00:00Z,30.6671,-87.9365,4.403,6.94,1111122 
DISL,ioos:station:DISL:MHPA:1,2009-04-03T07:30:00Z,30.6671,-87.9365,4.235,6.87,1111122 
DISL,ioos:station:DISL:MHPA:1,2009-04-03T08:00:00Z,30.6671,-87.9365,4.114,6.95,1111122 
DISL,ioos:station:DISL:MHPA:1,2009-04-03T08:30:00Z,30.6671,-87.9365,4.016,6.95,1111122 
DISL,ioos:station:DISL:MHPA:1,2009-04-03T09:00:00Z,30.6671,-87.9365,3.946,6.84,1111122 
DISL,ioos:station:DISL:MHPA:1,2009-04-03T09:30:00Z,30.6671,-87.9365,3.888,6.81,1111122 
DISL,ioos:station:DISL:MHPA:1,2009-04-03T10:00:00Z,30.6671,-87.9365,3.755,6.49,1111122 
DISL,ioos:station:DISL:MHPA:1,2009-04-03T10:30:00Z,30.6671,-87.9365,3.667,6.27,1111122 
DISL,ioos:station:DISL:MHPA:1,2009-04-03T11:00:00Z,30.6671,-87.9365,3.648,6.34,1111122 
DISL,ioos:station:DISL:MHPA:1,2009-04-03T11:30:00Z,30.6671,-87.9365,3.588,6.19,1111122 
DISL,ioos:station:DISL:MHPA:1,2009-04-03T12:00:00Z,30.6671,-87.9365,3.553,6.33,1111122 
DISL,ioos:station:DISL:MHPA:1,2009-04-03T12:30:00Z,30.6671,-87.9365,3.528,6.31,1111122 
DISL,ioos:station:DISL:MHPA:1,2009-04-03T13:00:00Z,30.6671,-87.9365,3.508,6.25,1111122 
DISL,ioos:station:DISL:MHPA:1,2009-04-03T13:30:00Z,30.6671,-87.9365,3.473,6.15,1111122 
DISL,ioos:station:DISL:MHPA:1,2009-04-03T14:00:00Z,30.6671,-87.9365,3.435,6.31,1111122 
DISL,ioos:station:DISL:MHPA:1,2009-04-03T14:30:00Z,30.6671,-87.9365,3.454,6.25,1111122 
DISL,ioos:station:DISL:MHPA:1,2009-04-03T15:00:00Z,30.6671,-87.9365,3.529,6.07,1111122 
DISL,ioos:station:DISL:MHPA:1,2009-04-03T15:30:00Z,30.6671,-87.9365,3.589,6.24,1111122 
DISL,ioos:station:DISL:MHPA:1,2009-04-03T16:00:00Z,30.6671,-87.9365,3.703,6.21,1111122 
DISL,ioos:station:DISL:MHPA:1,2009-04-03T16:30:00Z,30.6671,-87.9365,3.805,6.18,1111122 
DISL,ioos:station:DISL:MHPA:1,2009-04-03T17:00:00Z,30.6671,-87.9365,3.944,6.17,1111122 
DISL,ioos:station:DISL:MHPA:1,2009-04-03T17:30:00Z,30.6671,-87.9365,4.097,6.29,1111122 
DISL,ioos:station:DISL:MHPA:1,2009-04-03T18:00:00Z,30.6671,-87.9365,4.18,6.38,1111122 
DISL,ioos:station:DISL:MHPA:1,2009-04-03T18:30:00Z,30.6671,-87.9365,4.282,6.1,1111122 
DISL,ioos:station:DISL:MHPA:1,2009-04-03T19:00:00Z,30.6671,-87.9365,4.417,6.07,1111122 
DISL,ioos:station:DISL:MHPA:1,2009-04-03T19:30:00Z,30.6671,-87.9365,4.55,6.26,1111122 
DISL,ioos:station:DISL:MHPA:1,2009-04-03T20:00:00Z,30.6671,-87.9365,4.632,5.76,1111122 
DISL,ioos:station:DISL:MHPA:1,2009-04-03T20:30:00Z,30.6671,-87.9365,4.735,5.83,1111122 
DISL,ioos:station:DISL:MHPA:1,2009-04-03T21:00:00Z,30.6671,-87.9365,4.853,5.88,1111122 
DISL,ioos:station:DISL:MHPA:1,2009-04-03T21:30:00Z,30.6671,-87.9365,4.98,5.87,1111122 
DISL,ioos:station:DISL:MHPA:1,2009-04-03T22:00:00Z,30.6671,-87.9365,5.006,5.96,1111122 
DISL,ioos:station:DISL:MHPA:1,2009-04-03T22:30:00Z,30.6671,-87.9365,5.101,5.92,1111122 
DISL,ioos:station:DISL:MHPA:1,2009-04-03T23:00:00Z,30.6671,-87.9365,5.11,5.81,1111122 
DISL,ioos:station:DISL:MHPA:1,2009-04-03T23:30:00Z,30.6671,-87.9365,5.159,6.31,1111122 
DISL,ioos:station:DISL:MHPA:1,2009-04-04T00:00:00Z,30.6671,-87.9365,5.174,6.23,1111122 
DISL,ioos:station:DISL:MHPA:1,2009-04-04T00:30:00Z,30.6671,-87.9365,5.123,6.26,1111122 
DISL,ioos:station:DISL:MHPA:1,2009-04-04T01:00:00Z,30.6671,-87.9365,5.002,6.33,1111122 
DISL,ioos:station:DISL:MHPA:1,2009-04-04T01:30:00Z,30.6671,-87.9365,4.959,6.37,1111122 
DISL,ioos:station:DISL:MHPA:1,2009-04-04T02:00:00Z,30.6671,-87.9365,4.855,6.26,1111122 
DISL,ioos:station:DISL:MHPA:1,2009-04-04T02:30:00Z,30.6671,-87.9365,4.775,6.25,1111122 
DISL,ioos:station:DISL:MHPA:1,2009-04-04T03:00:00Z,30.6671,-87.9365,4.709,5.66,1111122 
DISL,ioos:station:DISL:MHPA:1,2009-04-04T03:30:00Z,30.6671,-87.9365,4.602,5.63,1111122 
DISL,ioos:station:DISL:MHPA:1,2009-04-04T04:00:00Z,30.6671,-87.9365,4.526,5.67,1111122 
DISL,ioos:station:DISL:MHPA:1,2009-04-04T04:30:00Z,30.6671,-87.9365,4.436,5.53,1111122 
DISL,ioos:station:DISL:MHPA:1,2009-04-04T05:00:00Z,30.6671,-87.9365,4.336,5.89,1111122 
DISL,ioos:station:DISL:MHPA:1,2009-04-04T05:30:00Z,30.6671,-87.9365,4.242,5.97,1111122 
DISL,ioos:station:DISL:MHPA:1,2009-04-04T06:00:00Z,30.6671,-87.9365,4.14,5.95,1111122 
DISL,ioos:station:DISL:MHPA:1,2009-04-04T06:30:00Z,30.6671,-87.9365,4.046,5.88,1111122 
DISL,ioos:station:DISL:MHPA:1,2009-04-04T07:00:00Z,30.6671,-87.9365,3.937,5.88,1111122 
DISL,ioos:station:DISL:MHPA:1,2009-04-04T07:30:00Z,30.6671,-87.9365,3.823,5.77,1111122 
DISL,ioos:station:DISL:MHPA:1,2009-04-04T08:00:00Z,30.6671,-87.9365,3.716,5.66,1111122 
DISL,ioos:station:DISL:MHPA:1,2009-04-04T08:30:00Z,30.6671,-87.9365,3.62,5.65,1111122 
DISL,ioos:station:DISL:MHPA:1,2009-04-04T09:00:00Z,30.6671,-87.9365,3.56,5.63,1111122 
DISL,ioos:station:DISL:MHPA:1,2009-04-04T09:30:00Z,30.6671,-87.9365,3.509,5.56,1111122 
DISL,ioos:station:DISL:MHPA:1,2009-04-04T10:00:00Z,30.6671,-87.9365,3.488,5.58,1111122 
DISL,ioos:station:DISL:MHPA:1,2009-04-04T10:30:00Z,30.6671,-87.9365,3.452,5.7,1111122 
DISL,ioos:station:DISL:MHPA:1,2009-04-04T11:00:00Z,30.6671,-87.9365,3.412,5.64,1111122 
DISL,ioos:station:DISL:MHPA:1,2009-04-04T11:30:00Z,30.6671,-87.9365,3.377,5.68,1111122 
DISL,ioos:station:DISL:MHPA:1,2009-04-04T12:00:00Z,30.6671,-87.9365,3.336,5.62,1111122 
DISL,ioos:station:DISL:MHPA:1,2009-04-04T12:30:00Z,30.6671,-87.9365,3.304,5.57,1111122 
DISL,ioos:station:DISL:MHPA:1,2009-04-04T13:00:00Z,30.6671,-87.9365,3.269,5.77,1111122 
DISL,ioos:station:DISL:MHPA:1,2009-04-04T13:30:00Z,30.6671,-87.9365,3.255,5.87,1111122 
DISL,ioos:station:DISL:MHPA:1,2009-04-04T14:00:00Z,30.6671,-87.9365,3.285,5.88,1111122 
DISL,ioos:station:DISL:MHPA:1,2009-04-04T14:30:00Z,30.6671,-87.9365,3.394,5.96,1111122 
DISL,ioos:station:DISL:MHPA:1,2009-04-04T15:00:00Z,30.6671,-87.9365,3.51,6.01,1111122 
DISL,ioos:station:DISL:MHPA:1,2009-04-04T15:30:00Z,30.6671,-87.9365,3.58,6.09,1111122 
DISL,ioos:station:DISL:MHPA:1,2009-04-04T16:00:00Z,30.6671,-87.9365,3.687,6.11,1111122 
DISL,ioos:station:DISL:MHPA:1,2009-04-04T16:30:00Z,30.6671,-87.9365,3.77,6.03,1111122 
DISL,ioos:station:DISL:MHPA:1,2009-04-04T17:00:00Z,30.6671,-87.9365,3.893,6.21,1111122 
DISL,ioos:station:DISL:MHPA:1,2009-04-04T17:30:00Z,30.6671,-87.9365,4.002,6.22,1111122 
DISL,ioos:station:DISL:MHPA:1,2009-04-04T18:00:00Z,30.6671,-87.9365,4.18,6.27,1111122 
DISL,ioos:station:DISL:MHPA:1,2009-04-04T18:30:00Z,30.6671,-87.9365,4.232,6.43,1111122 
DISL,ioos:station:DISL:MHPA:1,2009-04-04T19:00:00Z,30.6671,-87.9365,4.353,6.29,1111122 
DISL,ioos:station:DISL:MHPA:1,2009-04-04T19:30:00Z,30.6671,-87.9365,4.547,6.14,1111122 
DISL,ioos:station:DISL:MHPA:1,2009-04-04T20:00:00Z,30.6671,-87.9365,4.64,6.38,1111122 
DISL,ioos:station:DISL:MHPA:1,2009-04-04T20:30:00Z,30.6671,-87.9365,4.664,6.36,1111122 
DISL,ioos:station:DISL:MHPA:1,2009-04-04T21:00:00Z,30.6671,-87.9365,4.627,6.47,1111122 
DISL,ioos:station:DISL:MHPA:1,2009-04-04T21:30:00Z,30.6671,-87.9365,4.684,6.45,1111122 
DISL,ioos:station:DISL:MHPA:1,2009-04-04T22:00:00Z,30.6671,-87.9365,4.704,6.3,1111122 
DISL,ioos:station:DISL:MHPA:1,2009-04-04T22:30:00Z,30.6671,-87.9365,4.726,6.32,1111122 
DISL,ioos:station:DISL:MHPA:1,2009-04-04T23:00:00Z,30.6671,-87.9365,4.737,6.27,1111122 
DISL,ioos:station:DISL:MHPA:1,2009-04-04T23:30:00Z,30.6671,-87.9365,4.799,6.08,1111122 
DISL,ioos:station:DISL:MHPA:1,2009-04-05T00:00:00Z,30.6671,-87.9365,4.854,6.18,1111122 
DISL,ioos:station:DISL:MHPA:1,2009-04-05T00:30:00Z,30.6671,-87.9365,4.893,6.42,1111122 
DISL,ioos:station:DISL:MHPA:1,2009-04-05T01:00:00Z,30.6671,-87.9365,4.861,6.34,1111122 
DISL,ioos:station:DISL:MHPA:1,2009-04-05T01:30:00Z,30.6671,-87.9365,4.825,6.35,1111122 
DISL,ioos:station:DISL:MHPA:1,2009-04-05T02:00:00Z,30.6671,-87.9365,4.784,6.06,1111122 
DISL,ioos:station:DISL:MHPA:1,2009-04-05T02:30:00Z,30.6671,-87.9365,4.734,6.01,1111122 
DISL,ioos:station:DISL:MHPA:1,2009-04-05T03:00:00Z,30.6671,-87.9365,4.677,6.05,1111122 
DISL,ioos:station:DISL:MHPA:1,2009-04-05T03:30:00Z,30.6671,-87.9365,4.648,6.07,1111122 
DISL,ioos:station:DISL:MHPA:1,2009-04-05T04:00:00Z,30.6671,-87.9365,4.6,6.05,1111122 
DISL,ioos:station:DISL:MHPA:1,2009-04-05T04:30:00Z,30.6671,-87.9365,4.551,5.98,1111122 
DISL,ioos:station:DISL:MHPA:1,2009-04-05T05:00:00Z,30.6671,-87.9365,4.487,6.21,1111122 
DISL,ioos:station:DISL:MHPA:1,2009-04-05T05:30:00Z,30.6671,-87.9365,4.447,6.11,1111122 
DISL,ioos:station:DISL:MHPA:1,2009-04-05T06:00:00Z,30.6671,-87.9365,4.325,6.06,1111122 
DISL,ioos:station:DISL:MHPA:1,2009-04-05T06:30:00Z,30.6671,-87.9365,4.258,6.06,1111122 
DISL,ioos:station:DISL:MHPA:1,2009-04-05T07:00:00Z,30.6671,-87.9365,4.216,6.2,1111122 
DISL,ioos:station:DISL:MHPA:1,2009-04-05T07:30:00Z,30.6671,-87.9365,4.139,6.04,1111122 
DISL,ioos:station:DISL:MHPA:1,2009-04-05T08:00:00Z,30.6671,-87.9365,4.072,6.08,1111122 
DISL,ioos:station:DISL:MHPA:1,2009-04-05T08:30:00Z,30.6671,-87.9365,4.029,6.25,1111122 
DISL,ioos:station:DISL:MHPA:1,2009-04-05T09:00:00Z,30.6671,-87.9365,3.965,6.06,1111122 
DISL,ioos:station:DISL:MHPA:1,2009-04-05T09:30:00Z,30.6671,-87.9365,3.957,6.25,1111122 
DISL,ioos:station:DISL:MHPA:1,2009-04-05T10:00:00Z,30.6671,-87.9365,3.934,6.4,1111122 
DISL,ioos:station:DISL:MHPA:1,2009-04-05T10:30:00Z,30.6671,-87.9365,3.897,6.22,1111122 
DISL,ioos:station:DISL:MHPA:1,2009-04-05T11:00:00Z,30.6671,-87.9365,3.873,6.06,1111122 
DISL,ioos:station:DISL:MHPA:1,2009-04-05T11:30:00Z,30.6671,-87.9365,3.833,6.0,1111122 
DISL,ioos:station:DISL:MHPA:1,2009-04-05T12:00:00Z,30.6671,-87.9365,3.794,5.97,1111122 
DISL,ioos:station:DISL:MHPA:1,2009-04-05T12:30:00Z,30.6671,-87.9365,3.784,5.85,1111122 
DISL,ioos:station:DISL:MHPA:1,2009-04-05T13:00:00Z,30.6671,-87.9365,3.782,5.84,1111122 
DISL,ioos:station:DISL:MHPA:1,2009-04-05T13:30:00Z,30.6671,-87.9365,3.806,5.88,1111122 
DISL,ioos:station:DISL:MHPA:1,2009-04-05T14:00:00Z,30.6671,-87.9365,3.842,6.08,1111122 
DISL,ioos:station:DISL:MHPA:1,2009-04-05T14:30:00Z,30.6671,-87.9365,3.909,6.44,1111122 
DISL,ioos:station:DISL:MHPA:1,2009-04-05T15:00:00Z,30.6671,-87.9365,4.033,6.34,1111122 
DISL,ioos:station:DISL:MHPA:1,2009-04-05T15:30:00Z,30.6671,-87.9365,4.116,6.44,1111122 
DISL,ioos:station:DISL:MHPA:1,2009-04-05T16:00:00Z,30.6671,-87.9365,4.222,6.53,1111122 
DISL,ioos:station:DISL:MHPA:1,2009-04-05T16:30:00Z,30.6671,-87.9365,4.284,6.61,1111122 
DISL,ioos:station:DISL:MHPA:1,2009-04-05T17:00:00Z,30.6671,-87.9365,4.294,6.56,1111122 
DISL,ioos:station:DISL:MHPA:1,2009-04-05T17:30:00Z,30.6671,-87.9365,4.398,6.53,1111122 
DISL,ioos:station:DISL:MHPA:1,2009-04-05T18:00:00Z,30.6671,-87.9365,4.474,6.51,1111122 
DISL,ioos:station:DISL:MHPA:1,2009-04-05T18:30:00Z,30.6671,-87.9365,4.597,6.77,1111122 
DISL,ioos:station:DISL:MHPA:1,2009-04-05T19:00:00Z,30.6671,-87.9365,4.649,6.74,1111122 
DISL,ioos:station:DISL:MHPA:1,2009-04-05T19:30:00Z,30.6671,-87.9365,4.715,6.78,1111122 
DISL,ioos:station:DISL:MHPA:1,2009-04-05T20:00:00Z,30.6671,-87.9365,4.792,6.83,1111122 
DISL,ioos:station:DISL:MHPA:1,2009-04-05T20:30:00Z,30.6671,-87.9365,4.748,6.91,1111122 
DISL,ioos:station:DISL:MHPA:1,2009-04-05T21:00:00Z,30.6671,-87.9365,4.77,6.92,1111122 
DISL,ioos:station:DISL:MHPA:1,2009-04-05T21:30:00Z,30.6671,-87.9365,4.812,6.99,1111122 
DISL,ioos:station:DISL:MHPA:1,2009-04-05T22:00:00Z,30.6671,-87.9365,4.848,7.03,1111122 
DISL,ioos:station:DISL:MHPA:1,2009-04-05T22:30:00Z,30.6671,-87.9365,4.766,6.98,1111122 
DISL,ioos:station:DISL:MHPA:1,2009-04-05T23:00:00Z,30.6671,-87.9365,4.793,7.0,1111122 
DISL,ioos:station:DISL:MHPA:1,2009-04-05T23:30:00Z,30.6671,-87.9365,4.805,7.0,1111122 
DISL,ioos:station:DISL:MHPA:1,2009-04-06T00:00:00Z,30.6671,-87.9365,4.808,6.97,1111122 
DISL,ioos:station:DISL:MHPA:1,2009-04-06T00:30:00Z,30.6671,-87.9365,4.787,7.07,1111122 
DISL,ioos:station:DISL:MHPA:1,2009-04-06T01:00:00Z,30.6671,-87.9365,4.806,7.01,1111122 
DISL,ioos:station:DISL:MHPA:1,2009-04-06T01:30:00Z,30.6671,-87.9365,4.839,6.95,1111122 
DISL,ioos:station:DISL:MHPA:1,2009-04-06T02:00:00Z,30.6671,-87.9365,4.857,7.01,1111122 
DISL,ioos:station:DISL:MHPA:1,2009-04-06T02:30:00Z,30.6671,-87.9365,4.841,6.87,1111122 
DISL,ioos:station:DISL:MHPA:1,2009-04-06T03:00:00Z,30.6671,-87.9365,4.817,6.47,1111122 
DISL,ioos:station:DISL:MHPA:1,2009-04-06T03:30:00Z,30.6671,-87.9365,4.799,6.54,1111122 
DISL,ioos:station:DISL:MHPA:1,2009-04-06T04:00:00Z,30.6671,-87.9365,4.797,6.49,1111122 
DISL,ioos:station:DISL:MHPA:1,2009-04-06T04:30:00Z,30.6671,-87.9365,4.769,6.51,1111122 
DISL,ioos:station:DISL:MHPA:1,2009-04-06T05:00:00Z,30.6671,-87.9365,4.724,6.45,1111122 
DISL,ioos:station:DISL:MHPA:1,2009-04-06T05:30:00Z,30.6671,-87.9365,4.655,6.53,1111122 
DISL,ioos:station:DISL:MHPA:1,2009-04-06T06:00:00Z,30.6671,-87.9365,4.54,6.59,1111122 
DISL,ioos:station:DISL:MHPA:1,2009-04-06T06:30:00Z,30.6671,-87.9365,4.367,6.59,1111122 
DISL,ioos:station:DISL:MHPA:1,2009-04-06T07:00:00Z,30.6671,-87.9365,4.25,6.76,1111122 
DISL,ioos:station:DISL:MHPA:1,2009-04-06T07:30:00Z,30.6671,-87.9365,4.077,6.52,1111122 
DISL,ioos:station:DISL:MHPA:1,2009-04-06T08:00:00Z,30.6671,-87.9365,3.912,6.68,1111122 
DISL,ioos:station:DISL:MHPA:1,2009-04-06T08:30:00Z,30.6671,-87.9365,3.781,6.44,1111122 
DISL,ioos:station:DISL:MHPA:1,2009-04-06T09:00:00Z,30.6671,-87.9365,3.64,6.69,1111122 
DISL,ioos:station:DISL:MHPA:1,2009-04-06T09:30:00Z,30.6671,-87.9365,3.536,6.6,1111122 
DISL,ioos:station:DISL:MHPA:1,2009-04-06T10:00:00Z,30.6671,-87.9365,3.406,6.69,1111122 
DISL,ioos:station:DISL:MHPA:1,2009-04-06T10:30:00Z,30.6671,-87.9365,3.313,7.01,1111122 
DISL,ioos:station:DISL:MHPA:1,2009-04-06T11:00:00Z,30.6671,-87.9365,3.277,7.19,1111122 
DISL,ioos:station:DISL:MHPA:1,2009-04-06T11:30:00Z,30.6671,-87.9365,3.147,6.87,1111122 
DISL,ioos:station:DISL:MHPA:1,2009-04-06T12:00:00Z,30.6671,-87.9365,3.029,7.08,1111122 
DISL,ioos:station:DISL:MHPA:1,2009-04-06T12:30:00Z,30.6671,-87.9365,2.931,7.22,1111122 
DISL,ioos:station:DISL:MHPA:1,2009-04-06T13:00:00Z,30.6671,-87.9365,2.87,7.52,1111122 
DISL,ioos:station:DISL:MHPA:1,2009-04-06T13:30:00Z,30.6671,-87.9365,2.872,7.48,1111122 
DISL,ioos:station:DISL:MHPA:1,2009-04-06T14:00:00Z,30.6671,-87.9365,2.876,7.53,1111122 
DISL,ioos:station:DISL:MHPA:1,2009-04-06T14:30:00Z,30.6671,-87.9365,2.832,7.39,1111122 
DISL,ioos:station:DISL:MHPA:1,2009-04-06T15:00:00Z,30.6671,-87.9365,2.855,7.41,1111122 
DISL,ioos:station:DISL:MHPA:1,2009-04-06T15:30:00Z,30.6671,-87.9365,2.834,7.34,1111122 